SP1RAC-13 Weather Reports


time (UTC)temp
C
wind
direction
speed
KPH
gust
KPH
rain 1hr
cm
rain 24hr
cm
rain mn
cm
humidity
%
barometer
mb
20260905195911 15 0.0 0.0 0.00 0.00 0.00 92 1011.7
20260905193912 15 0.0 0.0 0.00 0.00 0.00 88 1011.7
20260905191914 15 0.0 0.0 0.00 0.00 0.00 87 1011.4
20260905190913 15 0.0 0.0 0.00 0.00 0.00 85 1011.5
20260905184911 15 0.0 0.0 0.00 0.00 0.00 85 1011.5
20260905183911 15 0.0 0.0 0.00 0.00 0.00 85 1011.4
20260905182911 15 0.0 0.0 0.00 0.00 0.00 84 1011.4
20260905180912 15 0.0 0.0 0.00 0.00 0.00 84 1011.4
20260905174911 15 0.0 0.0 0.00 0.00 0.00 84 1011.1
20260905171911 15 0.0 0.0 0.00 0.00 0.00 85 1010.8
20260905164912 16 0.0 0.0 0.00 0.00 0.00 85 1010.6
20260905160911 16 0.0 0.0 0.00 0.00 0.00 89 1010.0
20260905154912 16 0.0 0.0 0.00 0.00 0.00 91 1009.9
20260905153912 16 0.0 0.0 0.00 0.00 0.00 91 1009.8
20260905145912 16 0.0 0.0 0.00 0.00 0.00 92 1009.6
20260905144912 15 0.0 0.0 0.00 0.00 0.00 96 1009.6
20260905142911 15 0.0 0.0 0.00 0.00 0.00 97 1009.8
20260905140912 14 0.0 0.0 0.00 0.00 0.00 10 1009.7
20260905134911 13 0.0 0.0 0.00 0.00 0.00 10 1010.3
20260905123912 18 0.0 0.0 0.00 0.00 0.00 73 1009.2
20260905121914 18 0.0 0.0 0.00 0.00 0.00 77 1009.1
20260905113911 20 0.0 0.0 0.00 0.00 0.00 64 1009.0
20260905112912 20 0.0 0.0 0.00 0.00 0.00 66 1009.0
20260905111912 20 0.0 0.0 0.00 0.00 0.00 69 1008.8
20260905110911 19 0.0 0.0 0.00 0.00 0.00 73 1009.0
20260905105911 18 0.0 0.0 0.00 0.00 0.00 76 1009.1
20260905103912 18 0.0 0.0 0.00 0.00 0.00 68 1008.7
20260905102911 20 0.0 0.0 0.00 0.00 0.00 68 1008.8
20260905100911 19 0.0 0.0 0.00 0.00 0.00 68 1008.7
20260905095911 19 0.0 0.0 0.00 0.00 0.00 69 1008.7
20260905094911 19 0.0 0.0 0.00 0.00 0.00 69 1008.8
20260905092913 19 0.0 0.0 0.00 0.00 0.00 71 1008.6
20260905091912 19 0.0 0.0 0.00 0.00 0.00 69 1008.5
20260905084911 18 0.0 0.0 0.00 0.00 0.00 72 1008.3
20260905083911 18 0.0 0.0 0.00 0.00 0.00 73 1008.2
20260905082911 18 0.0 0.0 0.00 0.00 0.00 76 1008.2
20260905080911 17 0.0 0.0 0.00 0.00 0.00 80 1007.9
20260905075911 17 0.0 0.0 0.00 0.00 0.00 81 1007.9
20260905074911 17 0.0 0.0 0.00 0.00 0.00 81 1007.7
20260905072911 17 0.0 0.0 0.00 0.00 0.00 84 1007.5
20260905064912 16 0.0 0.0 0.00 0.00 0.00 90 1007.0
20260905063911 16 0.0 0.0 0.00 0.00 0.00 89 1006.9
20260905062911 16 0.0 0.0 0.00 0.00 0.00 84 1006.9
20260905061910 16 0.0 0.0 0.00 0.00 0.00 84 1006.7
20260905060911 15 0.0 0.0 0.00 0.00 0.00 86 1006.7
20260905055912 15 0.0 0.0 0.00 0.00 0.00 88 1006.7